This is the latest recevied weather packets stored in our database for station/object N9WHM. If no packets are shown the sender has not sent any weather packets the latest 10 day(s).
| Time | Temp. | Humidity | Pressure | Rain* | Wind** | Luminosity | Snow |
|---|---|---|---|---|---|---|---|
| 1777610648 | 7.78° C | 56% | 1018.2 hPa | 0 mm | - | 0 W/m² | - |
| 1777610343 | 7.22° C | 55% | 1018.2 hPa | 0 mm | - | 0 W/m² | - |
| 1777610039 | 7.22° C | 55% | 1018.2 hPa | 0 mm | - | 0 W/m² | - |
| 1777609736 | 7.78° C | 59% | 1018.5 hPa | 0 mm | - | 0 W/m² | - |
| 1777609433 | 7.22° C | 54% | 1018.4 hPa | 0 mm | - | 0 W/m² | - |
| 1777609130 | 7.22° C | 56% | 1018.3 hPa | 0 mm | - | 0 W/m² | - |
| 1777608827 | 7.22° C | 58% | 1018.4 hPa | 0 mm | - | 0 W/m² | - |
| 1777608524 | 7.78° C | 55% | 1018.4 hPa | 0 mm | - | 0 W/m² | - |
| 1777608222 | 7.78° C | 55% | 1018.5 hPa | 0 mm | - | 0 W/m² | - |
| 1777607919 | 7.78° C | 57% | 1018.5 hPa | 0 mm | - | 0 W/m² | - |
| 1777607614 | 7.22° C | 57% | 1018.4 hPa | 0 mm | - | 0 W/m² | - |
| 1777607312 | 6.67° C | 57% | 1018.5 hPa | 0 mm | - | 0 W/m² | - |
| 1777607007 | 6.67° C | 58% | 1018.3 hPa | 0 mm | - | 0 W/m² | - |
| 1777606703 | 6.11° C | 57% | 1018.4 hPa | 0 mm | - | 0 W/m² | - |
| 1777606399 | 6.11° C | 62% | 1018.5 hPa | 0 mm | - | 0 W/m² | - |
| 1777606094 | 6.67° C | 56% | 1018.4 hPa | 0 mm | - | 0 W/m² | - |
| 1777605790 | 7.22° C | 54% | 1018.4 hPa | 0 mm | - | 0 W/m² | - |
| 1777605490 | 7.22° C | 54% | 1018.5 hPa | 0 mm | - | 0 W/m² | - |
| 1777605186 | 7.22° C | 55% | 1018.6 hPa | 0 mm | - | 0 W/m² | - |
| 1777604882 | 7.22° C | 55% | 1018.5 hPa | 0 mm | - | 0 W/m² | - |
| 1777604577 | 7.22° C | 52% | 1018.4 hPa | 0 mm | - | 0 W/m² | - |
| 1777604274 | 6.67° C | 52% | 1018.5 hPa | 0 mm | - | 0 W/m² | - |
| 1777603969 | 7.22° C | 52% | 1018.7 hPa | 0 mm | - | 0 W/m² | - |
| 1777603666 | 7.22° C | 53% | 1018.7 hPa | 0 mm | - | 0 W/m² | - |
| 1777603363 | 7.22° C | 53% | 1018.5 hPa | 0 mm | - | 0 W/m² | - |
* Rain latest hour (hover to see other rain measurements)
** Current wind speed in m/s (hover to see current wind gust speed)